[[{"header":{"parameterUnit":"m.s-1","parameterCategory":1,"la1":30.2991,"la2":30.254,"lo1":-89.0895,"lo2":-89.0444,"dy":0.0017,"dx":0.0017,"nx":28,"ny":28,"refTime":"2025-04-20T03:00:00:Z","depth":0,"parameterNumber":2,"parameterNumberName":"U-component_of_WINDS"},"data":[0,0,0,0,0,0,0,0,0,0,0,0,0,0,0,0,0,0,0,0,0,0,0,0,0,0,0,0,0,0,0,0,0,0,0,0,0,0,0,0,0,0,0,0,0,0,0,0,0,0,0,0,0,0,0,0,0,0,-3.4912,-3.4913,0,-3.5016,-3.5017,-3.5019,-3.5015,-3.5013,-3.5012,-3.5011,-3.5119,-3.5123,-3.5128,0,0,0,0,0,0,0,0,0,0,0,0,0,-3.4711,-3.4714,-3.4911,-3.4913,-3.4914,-3.5016,-3.5018,-3.5019,-3.5015,-3.5013,-3.5012,-3.501,-3.5118,-3.5123,-3.5128,0,0,0,0,0,0,0,0,0,0,0,0,0,-3.4805,-3.4715,-3.4911,-3.4924,-3.4927,-3.5016,-3.5018,-3.5019,-3.5016,-3.5013,-3.5011,-3.5009,-3.5116,-3.5122,-3.5129,-3.5212,0,0,-3.5148,-3.5151,0,0,0,0,0,0,0,0,-3.48,-3.4812,-3.4921,-3.4924,-3.4926,-3.5,-3.4987,-3.5084,-3.5016,-3.4982,-3.5011,-3.5008,-3.5081,-3.5091,-3.5115,-3.5217,-3.5222,-3.5149,-3.5153,-3.5155,-3.5157,0,0,0,0,0,0,0,-3.4793,-3.4808,-3.4953,-3.4923,-3.4926,-3.4926,-3.4937,-3.5005,-3.5043,-3.4985,-3.4985,-3.4997,-3.5082,-3.5109,-3.5118,-3.5223,-3.5149,-3.5154,-3.5158,-3.5161,-3.54,-3.5402,0,0,0,0,0,0,-3.4783,-3.4802,-3.495,-3.4956,-3.4856,-3.4931,-3.4944,-3.4979,-3.5042,-3.5049,-3.4999,-3.4996,-3.5099,-3.511,-3.5121,-3.5223,-3.5155,-3.5161,-3.5165,-3.5397,-3.5401,-3.5403,0,0,0,0,0,0,-3.4779,-3.4797,-3.4945,-3.4879,-3.4898,-3.4937,-3.4977,-3.4982,-3.5008,-3.5053,-3.5059,-3.5019,-3.5098,-3.5112,-3.519,-3.5227,-3.5164,-3.517,-3.5395,-3.5398,-3.5402,-3.5427,0,0,0,0,0,0,-3.4773,-3.4795,-3.4826,-3.488,-3.4902,-3.5011,-3.4979,-3.4986,-3.5019,-3.5017,-3.5073,-3.508,-3.5097,-3.518,-3.5196,-3.5234,-3.5175,-3.5391,-3.5396,-3.5401,-3.5423,-3.5431,-3.5438,0,0,0,0,0,-3.4766,-3.4829,-3.4828,-3.4846,-3.4942,-3.5013,-3.5026,-3.5043,-3.5022,-3.5054,-3.5083,-3.5078,-3.5221,-3.5188,-3.5206,-3.5247,-3.5389,-3.5395,-3.54,-3.5419,-3.543,-3.5438,0,0,0,0,0,0,-3.4779,-3.4836,-3.4835,-3.4918,-3.4961,-3.5012,-3.5053,-3.5053,-3.5103,-3.5099,-3.512,-3.5133,-3.521,-3.5237,-3.5199,-3.5331,-3.5302,-3.5312,-3.5311,-3.5321,-3.5328,-3.5319,-3.518,0,0,0,0,0,-3.4791,-3.4844,-3.4892,-3.496,-3.4981,-3.5014,-3.5046,-3.5056,-3.5101,-3.5119,-3.5154,-3.5198,-3.5253,-3.5289,-3.5342,-3.5428,-3.544,-3.5465,-3.5472,-3.5479,-3.5486,-3.5534,-3.5546,-3.5422,-3.5422,-3.5422,0,0,-3.4817,-3.4855,-3.4887,-3.4963,-3.4998,-3.5052,-3.5029,-3.5088,-3.5129,-3.5128,-3.5203,-3.523,-3.5282,-3.5364,-3.5401,-3.5388,-3.5523,-3.5486,-3.549,-3.5495,-3.5541,-3.5553,-3.5563,-3.5426,-3.5425,-3.5425,0,0,-3.4892,-3.4926,-3.4987,-3.5022,-3.5074,-3.5096,-3.5111,-3.5163,-3.5181,-3.5256,-3.5257,-3.5307,-3.5401,-3.5438,-3.5469,-3.556,-3.5558,-3.5577,-3.5616,-3.5663,-3.5672,-3.5681,-3.5713,-3.5725,-3.5585,-3.5585,-3.5585,0,-3.4918,-3.4999,-3.5018,-3.5077,-3.5111,-3.5114,-3.5175,-3.5209,-3.5276,-3.53,-3.5284,-3.5403,-3.5438,-3.5528,-3.5551,-3.5576,-3.5594,-3.557,-3.5669,-3.5678,-3.5687,-3.5718,-3.573,-3.5587,-3.5587,-3.5586,-3.5586,0,-3.5028,-3.5085,-3.5128,-3.5192,-3.5231,-3.5292,-3.532,-3.5358,-3.5365,-3.5389,-3.5466,-3.5509,-3.557,-3.5593,-3.5601,-3.5686,-3.5676,-3.5665,-3.5636,-3.57,-3.573,-3.5742,-3.559,-3.5589,-3.5588,-3.5588,0,0,-3.5112,-3.5187,-3.5202,-3.5232,-3.5291,-3.5336,-3.5397,-3.5457,-3.5489,-3.5536,-3.5588,-3.5669,-3.5659,-3.5694,-3.5707,-3.5748,-3.5818,-3.5732,-3.5734,-3.5746,-3.5914,-3.5921,-3.5934,-3.5818,-3.582,-3.5822,-3.5909,0,-3.5192,-3.5299,-3.5319,-3.5413,-3.5466,-3.5471,-3.5524,-3.5567,-3.5591,-3.5641,-3.5668,-3.5724,-3.5708,-3.5729,-3.577,-3.58,-3.5852,-3.5795,-3.5866,-3.5868,-3.5851,-3.5949,-3.5957,-3.6037,-3.5921,-3.5923,-3.5924,0,-3.5299,-3.5349,-3.5448,-3.5501,-3.5524,-3.5571,-3.5629,-3.5676,-3.5725,-3.574,-3.5781,-3.5789,-3.5854,-3.5823,-3.5913,-3.5874,-3.5905,-3.5925,-3.5929,-3.5935,-3.5899,-3.5957,-3.6063,-3.6074,-3.5943,-3.5941,-3.594,0,-3.5349,-3.5441,-3.5513,-3.5538,-3.5602,-3.5635,-3.5663,-3.571,-3.5746,-3.5796,-3.582,-3.5878,-3.5909,-3.5955,-3.5979,-3.5954,-3.6067,-3.6039,-3.6082,-3.6081,-3.6103,-3.6101,-3.6214,-3.6126,-3.6126,-3.6125,-3.6125,0,-3.5436,-3.5497,-3.5536,-3.5579,-3.5648,-3.5671,-3.5738,-3.5766,-3.5808,-3.5858,-3.5867,-3.5914,-3.5943,-3.5995,-3.6015,-3.6087,-3.6101,-3.6115,-3.612,-3.6114,-3.6112,-3.6133,-3.6128,-3.6129,-3.6128,-3.6127,-3.6127,0,-3.5503,-3.5531,-3.5609,-3.5664,-3.5679,-3.5727,-3.5774,-3.5817,-3.5842,-3.5905,-3.5922,-3.5961,-3.6023,-3.6052,-3.6128,-3.6142,-3.6223,-3.6224,-3.6206,-3.6207,-3.6248,-3.6243,-3.6377,-3.6396,-3.6296,-3.6297,-3.6298,0,-3.5555,-3.5602,-3.5661,-3.5695,-3.5724,-3.5778,-3.5815,-3.584,-3.5877,-3.5938,-3.5974,-3.6036,-3.6086,-3.6185,-3.6221,-3.628,-3.6282,-3.6325,-3.629,-3.6283,-3.6281,-3.6278,-3.6283,-3.633,-3.6331,-3.6332,-3.6333,0,-3.5646,-3.5658,-3.5709,-3.5766,-3.5809,-3.5856,-3.5901,-3.5929,-3.5961,-3.6003,-3.6066,-3.6105,-3.6184,-3.6245,-3.6306,-3.6337,-3.6341,-3.6344,-3.6356,-3.635,-3.6337,-3.6344,-3.6221,-3.634,-3.6339,-3.6338,-3.6338,-3.6338,-3.5706,-3.5748,-3.5796,-3.5854,-3.5891,-3.5934,-3.5977,-3.6008,-3.606,-3.6125,-3.6138,-3.6204,-3.6254,-3.6337,-3.637,-3.6423,-3.6413,-3.6432,-3.6436,-3.644,-3.6442,-3.633,-3.6434,-3.6434,-3.6434,-3.6434,-3.6434,0,-3.5796,-3.5828,-3.5881,-3.5944,-3.599,-3.599,-3.604,-3.6079,-3.6137,-3.6183,-3.6232,-3.6305,-3.6365,-3.6407,-3.6468,-3.6503,-3.6506,-3.6518,-3.6515,-3.6522,-3.6448,-3.643,-3.6514,-3.6514,-3.6514,-3.6514,-3.6514,-3.6514,-3.5849,-3.5919,-3.5937,-3.6027,-3.6059,-3.6123,-3.6152,-3.6192,-3.6229,-3.6309,-3.6359,-3.6386,-3.6431,-3.6495,-3.6551,-3.6562,-3.6584,-3.6595,-3.6606,-3.6536,-3.6527,-3.6519,-3.6502,-3.66,-3.66,-3.6676,-3.6676,-3.6677]},{"header":{"parameterUnit":"m.s-1","parameterCategory":1,"la1":30.2991,"la2":30.254,"lo1":-89.0895,"lo2":-89.0444,"dy":0.0017,"dx":0.0017,"nx":28,"ny":28,"refTime":"2025-04-20T03:00:00:Z","depth":0,"parameterNumber":3,"parameterNumberName":"V-component_of_WINDS"},"data":[0,0,0,0,0,0,0,0,0,0,0,0,0,0,0,0,0,0,0,0,0,0,0,0,0,0,0,0,0,0,0,0,0,0,0,0,0,0,0,0,0,0,0,0,0,0,0,0,0,0,0,0,0,0,0,0,0,0,3.6467,3.6468,0,3.6537,3.6537,3.6538,3.6533,3.6532,3.6531,3.653,3.6598,3.6601,3.6604,0,0,0,0,0,0,0,0,0,0,0,0,0,3.6328,3.633,3.6467,3.6468,3.6469,3.6537,3.6537,3.6538,3.6533,3.6532,3.653,3.6529,3.6597,3.66,3.6604,0,0,0,0,0,0,0,0,0,0,0,0,0,3.6392,3.6331,3.6467,3.6474,3.6476,3.6536,3.6538,3.6539,3.6533,3.6532,3.653,3.6529,3.6596,3.66,3.6604,3.6661,0,0,3.6617,3.6619,0,0,0,0,0,0,0,0,3.6388,3.6397,3.6472,3.6474,3.6475,3.6525,3.6513,3.658,3.6534,3.6511,3.653,3.6528,3.6575,3.658,3.6597,3.6664,3.6667,3.6617,3.662,3.6622,3.6623,0,0,0,0,0,0,0,3.6384,3.6394,3.6494,3.6473,3.6475,3.6474,3.6481,3.6526,3.6551,3.6513,3.6513,3.6521,3.6575,3.6593,3.6598,3.6668,3.6617,3.6621,3.6624,3.6625,3.6788,3.679,0,0,0,0,0,0,3.6378,3.639,3.6492,3.6496,3.6427,3.6477,3.6486,3.651,3.655,3.6555,3.6523,3.6521,3.6586,3.6594,3.6601,3.6672,3.6622,3.6626,3.6628,3.6787,3.6789,3.6791,0,0,0,0,0,0,3.6375,3.6387,3.6489,3.6443,3.6456,3.6481,3.6509,3.6512,3.653,3.6558,3.6562,3.6536,3.6586,3.6595,3.6647,3.6674,3.6627,3.6631,3.6784,3.6787,3.679,3.6813,0,0,0,0,0,0,3.6371,3.6386,3.6408,3.6444,3.6459,3.6535,3.6511,3.6515,3.6538,3.6536,3.6571,3.6576,3.6585,3.6641,3.6651,3.6679,3.6635,3.6782,3.6786,3.6789,3.681,3.6816,3.6821,0,0,0,0,0,3.6366,3.6411,3.6409,3.6421,3.6487,3.6536,3.6545,3.6555,3.654,3.6562,3.658,3.6575,3.6669,3.6646,3.6658,3.6687,3.678,3.6785,3.6789,3.6807,3.6815,3.6821,0,0,0,0,0,0,3.6375,3.6415,3.6414,3.6472,3.6501,3.6535,3.6564,3.6563,3.6596,3.6593,3.6604,3.6612,3.6665,3.6681,3.6654,3.6745,3.6723,3.6729,3.6733,3.674,3.6746,3.6741,3.6638,0,0,0,0,0,3.6385,3.6422,3.6454,3.6502,3.6517,3.6538,3.656,3.6566,3.6596,3.6608,3.6629,3.6658,3.6695,3.6718,3.6753,3.6812,3.682,3.6838,3.6844,3.6849,3.6854,3.6888,3.6897,3.6804,3.6804,3.6804,0,0,3.6403,3.643,3.6452,3.6505,3.6528,3.6567,3.6548,3.6589,3.6618,3.6614,3.6665,3.6682,3.6715,3.6771,3.6797,3.6786,3.6882,3.6854,3.6857,3.6861,3.6894,3.6902,3.691,3.6807,3.6807,3.6806,0,0,3.6457,3.648,3.6524,3.6548,3.6584,3.6598,3.6609,3.6644,3.6656,3.6708,3.6706,3.674,3.6802,3.6826,3.6847,3.6912,3.6909,3.6923,3.6953,3.6987,3.6994,3.7,3.7025,3.7034,3.6929,3.6929,3.6929,0,3.6475,3.6534,3.6546,3.6588,3.6612,3.6612,3.6656,3.6678,3.6724,3.674,3.6728,3.6807,3.6829,3.6892,3.6909,3.6925,3.6937,3.6919,3.6992,3.6999,3.7005,3.7029,3.7038,3.693,3.693,3.693,3.693,0,3.6555,3.6596,3.6626,3.6672,3.6699,3.6742,3.676,3.6786,3.6791,3.6806,3.686,3.6886,3.6928,3.6943,3.6947,3.7007,3.7,3.699,3.6967,3.7015,3.7038,3.7047,3.6933,3.6932,3.6932,3.6931,0,0,3.6615,3.6669,3.668,3.6702,3.6743,3.6774,3.6817,3.6859,3.6882,3.6913,3.695,3.7004,3.6996,3.7019,3.7026,3.7055,3.7107,3.7042,3.7043,3.7054,3.7177,3.7185,3.7195,3.7105,3.7107,3.7108,3.7175,0,3.6674,3.6752,3.6765,3.6833,3.6871,3.6873,3.6911,3.694,3.6956,3.6991,3.7008,3.7047,3.7032,3.7047,3.7076,3.7095,3.7132,3.709,3.714,3.7141,3.7132,3.7206,3.7214,3.7275,3.7183,3.7185,3.7186,0,3.6752,3.6788,3.6861,3.6899,3.6915,3.6949,3.699,3.7023,3.7056,3.7066,3.7093,3.7097,3.7142,3.7118,3.7181,3.7152,3.7174,3.7186,3.7189,3.7194,3.7167,3.7214,3.7295,3.7304,3.7199,3.7198,3.7197,0,3.679,3.6857,3.6909,3.6927,3.6972,3.6997,3.7016,3.7049,3.7074,3.7109,3.7125,3.7165,3.7187,3.7217,3.7232,3.7213,3.7294,3.7271,3.7304,3.7304,3.7321,3.7319,3.7406,3.7334,3.7333,3.7333,3.7333,0,3.6855,3.6899,3.6927,3.6959,3.701,3.7025,3.7074,3.7093,3.7122,3.7158,3.7161,3.7195,3.7212,3.7248,3.726,3.7311,3.7321,3.733,3.7333,3.733,3.7329,3.7344,3.7341,3.7336,3.7335,3.7335,3.7334,0,3.6906,3.6926,3.6984,3.7023,3.7034,3.7069,3.7102,3.7134,3.715,3.7196,3.7208,3.7234,3.7277,3.7295,3.7347,3.7355,3.7414,3.7413,3.7403,3.7404,3.7436,3.7433,3.7537,3.7551,3.7468,3.7469,3.7469,0,3.6946,3.698,3.7024,3.7049,3.707,3.711,3.7136,3.7153,3.718,3.7222,3.7249,3.7292,3.7328,3.7397,3.742,3.7461,3.7461,3.7495,3.7467,3.7464,3.7463,3.7461,3.7465,3.75,3.75,3.7501,3.7502,0,3.7015,3.7024,3.7062,3.7105,3.7137,3.717,3.7203,3.7224,3.7245,3.7276,3.7321,3.7349,3.7404,3.7447,3.7489,3.7509,3.751,3.751,3.752,3.7518,3.7512,3.7517,3.7418,3.7508,3.7507,3.7507,3.7506,3.7506,3.7062,3.7094,3.713,3.7173,3.72,3.7232,3.7264,3.7286,3.7324,3.7371,3.7378,3.7427,3.7461,3.7518,3.754,3.7578,3.7569,3.7583,3.7587,3.7591,3.7594,3.7506,3.7586,3.7585,3.7585,3.7585,3.7585,0,3.7133,3.7157,3.7196,3.7244,3.7278,3.7276,3.7313,3.7342,3.7385,3.7417,3.7453,3.7506,3.7549,3.7576,3.762,3.7645,3.7646,3.7656,3.7654,3.7659,3.7598,3.7586,3.7654,3.7654,3.7654,3.7654,3.7654,3.7654,3.7173,3.7228,3.7241,3.7309,3.7333,3.7381,3.7403,3.7432,3.7458,3.7518,3.7554,3.7572,3.7603,3.7649,3.7688,3.7695,3.7711,3.7721,3.7728,3.767,3.7663,3.7656,3.7645,3.7725,3.7725,3.7786,3.7787,3.7787]}]]